Weather History for Monroe, NC

Change the Weather History Date:

Saturday, November 30, 2013

  Actual Average (KCLT) Record (KCLT)
Temperature  
Mean Temperature 37 °F 46 °F  
Max Temperature 46 °F 57 °F 76 °F (1991)
Min Temperature 28 °F 35 °F 15 °F (1929)
Degree Days  
Heating Degree Days 28 19  
Month to date heating degree days 431  
Since 1 July heating degree days 636  
Cooling Degree Days 0 0  
Month to date cooling degree days 4  
Year to date cooling degree days 1517  
Moisture  
Dew Point 25 °F    
Average Humidity 62    
Maximum Humidity 78    
Minimum Humidity 41    
Precipitation  
Precipitation 0.00 in 0.11 in 2.09 in (1974)
Month to date precipitation 3.14  
Year to date precipitation 38.38  
Snow  
Snow 0.00 in 0.00 in T in (1964)
Month to date snowfall 0.1  
Since 1 July snowfall 0.1  
Since 1 September snowfall 0.1  
Snow Depth -    
Sea Level Pressure  
Sea Level Pressure 30.57 in    
Wind  
Wind Speed 7 mph (NE)    
Max Wind Speed 14 mph    
Max Gust Speed -    
Visibility 10 miles    
Events      
T = Trace of Precipitation, MM = Missing Value Source: NWS Daily Summary

Daily Weather History Graph

Daily Weather History Graph

Search for Another Location

Airport:

Trip Planner

Search our weather history database for the weather conditions in past years. The results will help you decide how hot, cold, wet, or windy it might be!

Date:

Astronomy

Nov. 30, 2013 Rise Set
Actual Time 7:11 AM EST 5:10 PM EST
Civil Twilight 6:43 AM EST 5:38 PM EST
Nautical Twilight 6:12 AM EST 6:09 PM EST
Astronomical Twilight 5:41 AM EST 6:40 PM EST
Moon 4:25 AM EST (11/30) 3:29 PM EST (11/30)
Length of Visible Light 10h 54m
Length of Day
9h 59m
Waning Crescent, 7% of the Moon is Illuminated
Nov 30
Waning Crescent
Dec 2
New
Dec 9
First Quarter
Dec 17
Full
Dec 25
Last Quarter

Hourly Weather History & Observations

Time (EST) Temp. Windchill Dew Point Humidity Pressure Visibility Wind Dir Wind Speed Gust Speed Precip Events Conditions
12:53 AM 33.1 °F 27.7 °F 24.1 °F 70% 30.64 in 10.0 mi NE 5.8 mph - N/A   Clear
1:53 AM 32.0 °F 26.4 °F 23.0 °F 69% 30.64 in 10.0 mi NE 5.8 mph - N/A   Clear
2:53 AM 30.9 °F 23.5 °F 23.0 °F 72% 30.64 in 10.0 mi NE 8.1 mph - N/A   Clear
3:53 AM 30.0 °F 23.2 °F 23.0 °F 75% 30.64 in 10.0 mi NE 6.9 mph - N/A   Clear
4:53 AM 28.9 °F 21.1 °F 23.0 °F 78% 30.64 in 10.0 mi NE 8.1 mph - N/A   Clear
5:53 AM 28.9 °F 21.1 °F 23.0 °F 78% 30.65 in 10.0 mi NNE 8.1 mph - N/A   Clear
6:53 AM 30.0 °F 21.1 °F 23.0 °F 75% 30.67 in 10.0 mi NNE 10.4 mph - N/A   Clear
7:53 AM 30.9 °F 21.7 °F 21.9 °F 69% 30.68 in 10.0 mi NNE 11.5 mph - N/A   Clear
8:53 AM 33.1 °F 24.4 °F 23.0 °F 66% 30.68 in 10.0 mi NNE 11.5 mph - N/A   Clear
9:53 AM 37.0 °F 28.5 °F 24.1 °F 59% 30.66 in 10.0 mi NNE 13.8 mph - N/A   Clear
10:53 AM 39.9 °F 35.1 °F 25.0 °F 55% 30.65 in 10.0 mi NNE 6.9 mph - N/A   Clear
11:53 AM 43.0 °F 37.2 °F 25.0 °F 49% 30.61 in 10.0 mi NNE 10.4 mph - N/A   Clear
12:53 PM 46.0 °F 41.4 °F 26.1 °F 46% 30.57 in 10.0 mi NE 9.2 mph - N/A   Clear
1:53 PM 46.9 °F - 25.0 °F 42% 30.52 in 10.0 mi NNE 5.8 mph - N/A   Clear
2:53 PM 46.9 °F - 24.1 °F 41% 30.51 in 10.0 mi Variable 5.8 mph - N/A   Clear
3:53 PM 46.9 °F - 25.0 °F 42% 30.50 in 10.0 mi NNE 6.9 mph - N/A   Mostly Cloudy
4:53 PM 45.0 °F 43.5 °F 26.1 °F 48% 30.50 in 10.0 mi NE 3.5 mph - N/A   Mostly Cloudy
5:53 PM 42.1 °F - 27.0 °F 55% 30.49 in 10.0 mi Calm Calm - N/A   Partly Cloudy
6:53 PM 37.0 °F - 27.0 °F 67% 30.48 in 10.0 mi Calm Calm - N/A   Clear
7:53 PM 37.9 °F - 27.0 °F 65% 30.46 in 10.0 mi Calm Calm - N/A   Clear
8:53 PM 37.9 °F - 27.0 °F 65% 30.46 in 10.0 mi Calm Calm - N/A   Clear
9:53 PM 35.1 °F 32.2 °F 26.1 °F 70% 30.45 in 10.0 mi NNE 3.5 mph - N/A   Clear
10:53 PM 37.0 °F - 26.1 °F 65% 30.44 in 10.0 mi Calm Calm - N/A   Scattered Clouds
11:53 PM 37.0 °F - 27.0 °F 67% 30.42 in 10.0 mi Calm Calm - N/A   Scattered Clouds